User: anonymous   Login
Location: Barruelo
(41.2448°N, 3.8231°W)
Time: 01:30:03
(UTC+00:00)
Language:

MOS 1 Rocket - Orbit

View from above orbital plane
View from above orbital plane
View from above satellite
View from above satellite

Ground track
Ground track

The orbit is defined by the following mean orbital elements,

1 17528U          26042.01133034 +.00000000 +00000-0 +14850-3 0 00006
2 17528  97.4026  50.6013 0145910  97.2670 264.5140 14.54431842    07
Epoch (UTC): 11 February 2026 00:16:18
Eccentricity: 0.0145910
inclination: 97.4026°
perigee height: 608 km
apogee height: 815 km
right ascension of ascending node: 50.6013°
argument of perigee: 97.2670°
revolutions per day: 14.54431842
mean anomaly at epoch: 264.5140°

The dashed part of the orbit path shows where the satellite is in the earth's shadow,  

DLR